FW3855 Weather Reports


Display with metric or nautical units.
time (UTC)temp
F
wind
direction
speed
MPH
gust
MPH
rain 1hr
in
rain 24hr
in
rain mn
in
humidity
%
barometer
mb
20260505181156 57 198 2.0 9.0 0.00 0.00 0.00 33 1012.6
20260505180651 58 265 2.0 7.0 0.00 0.00 0.00 33 1012.5
20260505175639 57 226 3.0 12.0 0.00 0.00 0.00 33 1012.5
20260505175135 58 232 2.0 10.0 0.00 0.00 0.00 31 1012.6
20260505174627 59 223 3.0 9.0 0.00 0.00 0.00 31 1012.4
20260505174121 59 214 5.0 19.0 0.00 0.00 0.00 31 1012.5
20260505173615 59 182 4.0 19.0 0.00 0.00 0.00 30 1012.4
20260505173108 60 212 5.0 14.0 0.00 0.00 0.00 30 1012.3
20260505172612 60 205 6.0 16.0 0.00 0.00 0.00 29 1012.1
20260505171608 60 143 6.0 15.0 0.00 0.00 0.00 29 1012.3
20260505170606 59 198 6.0 17.0 0.00 0.00 0.00 31 1012.3
20260505170110 58 146 5.0 13.0 0.00 0.00 0.00 32 1012.1
20260505165107 59 124 5.0 16.0 0.00 0.00 0.00 32 1012.3
20260505164605 59 129 5.0 16.0 0.00 0.00 0.00 31 1012.3
20260505164111 58 122 6.0 15.0 0.00 0.00 0.00 31 1012.3
20260505163605 58 114 6.0 15.0 0.00 0.00 0.00 32 1012.3
20260505163109 58 205 6.0 18.0 0.00 0.00 0.00 31 1012.1
20260505162607 58 197 6.0 18.0 0.00 0.00 0.00 32 1012.1
20260505162106 58 137 7.0 16.0 0.00 0.00 0.00 32 1012.1
20260505161109 58 236 3.0 13.0 0.00 0.00 0.00 33 1012.1
20260505160600 58 236 3.0 13.0 0.00 0.00 0.00 32 1012.3
20260505153055 57 110 3.0 14.0 0.00 0.00 0.00 35 1012.3
20260505152552 56 107 5.0 14.0 0.00 0.00 0.00 36 1012.1
20260505152057 55 128 4.0 13.0 0.00 0.00 0.00 36 1012.0
20260505151554 56 94 4.0 12.0 0.00 0.00 0.00 36 1012.0
20260505151055 55 233 4.0 12.0 0.00 0.00 0.00 36 1012.1
20260505140549 53 121 2.0 8.0 0.00 0.00 0.00 41 1011.9
20260505124540 47 236 2.0 7.0 0.00 0.00 0.00 49 1011.7
20260505124038 47 144 2.0 7.0 0.00 0.00 0.00 49 1011.6
20260505123540 47 203 2.0 7.0 0.00 0.00 0.00 49 1011.5
20260505122034 47 187 3.0 9.0 0.00 0.00 0.00 49 1011.6
20260505121035 47 193 4.0 12.0 0.00 0.00 0.00 49 1011.5
20260505120539 47 201 4.0 12.0 0.00 0.00 0.00 49 1011.5
20260505115035 47 179 2.0 5.0 0.00 0.00 0.00 49 1011.8
20260505113540 47 217 1.0 6.0 0.00 0.00 0.00 49 1011.7
20260505113032 47 96 1.0 6.0 0.00 0.00 0.00 49 1011.8
20260505112020 48 178 2.0 5.0 0.00 0.00 0.00 48 1011.8
20260505111512 48 210 3.0 8.0 0.00 0.00 0.00 48 1011.8
20260505111009 48 194 3.0 8.0 0.00 0.00 0.00 48 1011.9
20260505110503 48 161 3.0 6.0 0.00 0.00 0.00 48 1011.9
20260505101915 48 88 2.0 9.0 0.00 0.00 0.00 47 1011.7
20260505101409 48 156 2.0 9.0 0.00 0.00 0.00 47 1011.7
20260505100905 48 154 2.0 7.0 0.00 0.00 0.00 46 1011.6
20260505100402 48 312 2.0 6.0 0.00 0.00 0.00 46 1011.7
20260505095846 48 103 2.0 6.0 0.00 0.00 0.00 46 1011.8
20260505095337 49 222 1.0 6.0 0.00 0.00 0.00 46 1011.8
20260505094831 49 228 1.0 7.0 0.00 0.00 0.00 45 1011.9
20260505094329 49 136 2.0 7.0 0.00 0.00 0.00 46 1011.9
20260505093822 49 101 2.0 8.0 0.00 0.00 0.00 45 1011.9
20260505093312 49 165 2.0 8.0 0.00 0.00 0.00 45 1011.9
20260505092810 49 218 2.0 6.0 0.00 0.00 0.00 45 1011.9
20260505092305 49 122 1.0 6.0 0.00 0.00 0.00 45 1011.9
20260505091755 49 238 1.0 7.0 0.00 0.00 0.00 44 1012.0
20260505090744 49 161 1.0 6.0 0.00 0.00 0.00 43 1012.1
20260505090237 49 226 1.0 5.0 0.00 0.00 0.00 42 1012.3
20260505085734 49 186 1.0 5.0 0.00 0.00 0.00 42 1012.5
20260505085227 49 163 2.0 7.0 0.00 0.00 0.00 41 1012.4
20260505084720 50 169 3.0 7.0 0.00 0.00 0.00 41 1012.4
20260505084213 50 193 2.0 6.0 0.00 0.00 0.00 41 1012.5
20260505083707 50 184 2.0 6.0 0.00 0.00 0.00 40 1012.5
20260505082656 51 116 2.0 7.0 0.00 0.00 0.00 40 1012.5
20260505082149 51 144 2.0 7.0 0.00 0.00 0.00 40 1012.6
20260505081643 51 127 2.0 6.0 0.00 0.00 0.00 40 1012.6
20260505081138 51 147 3.0 6.0 0.00 0.00 0.00 40 1012.6
20260505080633 51 238 3.0 8.0 0.00 0.00 0.00 40 1012.7
20260505080126 51 195 2.0 8.0 0.00 0.00 0.00 40 1012.8
20260505075113 51 200 3.0 9.0 0.00 0.00 0.00 39 1013.0
20260505074607 51 127 2.0 9.0 0.00 0.00 0.00 39 1012.9
20260505073049 51 236 2.0 8.0 0.00 0.00 0.00 38 1012.6
20260505072544 51 252 2.0 7.0 0.00 0.00 0.00 37 1012.6
20260505071531 52 141 4.0 10.0 0.00 0.00 0.00 36 1012.5
20260505071028 52 210 3.0 10.0 0.00 0.00 0.00 35 1012.6
20260505070519 52 131 4.0 12.0 0.00 0.00 0.00 34 1012.7
20260505070014 53 193 4.0 12.0 0.00 0.00 0.00 34 1012.9
20260505065001 53 210 5.0 12.0 0.00 0.00 0.00 33 1012.7
20260505064456 53 232 5.0 11.0 0.00 0.00 0.00 32 1012.6
20260505063446 53 183 3.0 12.0 0.00 0.00 0.00 33 1012.5
20260505062944 53 201 3.0 10.0 0.00 0.00 0.00 33 1012.5
20260505062443 53 216 2.0 9.0 0.00 0.00 0.00 32 1012.3
20260505061945 52 215 2.0 9.0 0.00 0.00 0.00 32 1012.3
20260505061445 53 166 1.0 5.0 0.00 0.00 0.00 31 1012.1
20260505060944 53 257 1.0 6.0 0.00 0.00 0.00 30 1012.3
20260505055944 53 156 3.0 9.0 0.00 0.00 0.00 29 1012.4
20260505055446 53 168 3.0 9.0 0.00 0.00 0.00 29 1012.5
20260505054944 53 191 2.0 7.0 0.00 0.00 0.00 28 1012.4
20260505054444 54 240 1.0 7.0 0.00 0.00 0.00 28 1012.5
20260505053946 54 203 2.0 7.0 0.00 0.00 0.00 27 1012.5
20260505053444 54 184 3.0 8.0 0.00 0.00 0.00 27 1012.5
20260505052944 54 141 3.0 8.0 0.00 0.00 0.00 27 1012.6
20260505051944 55 204 4.0 13.0 0.00 0.00 0.00 26 1012.6
20260505050946 56 161 7.0 20.0 0.00 0.00 0.00 24 1012.6
20260505050445 56 193 7.0 20.0 0.00 0.00 0.00 25 1012.6
20260505041446 57 62 6.0 15.0 0.00 0.00 0.00 18 1012.4
20260505040948 57 149 7.0 19.0 0.00 0.00 0.00 20 1012.5
20260505040444 57 186 8.0 19.0 0.00 0.00 0.00 17 1012.6
20260505035944 57 149 6.0 15.0 0.00 0.00 0.00 18 1012.6
20260505035444 57 199 6.0 15.0 0.00 0.00 0.00 18 1012.6
20260505034944 57 167 7.0 16.0 0.00 0.00 0.00 19 1012.5
20260505033440 58 204 6.0 13.0 0.00 0.00 0.00 19 1012.1
20260505032440 58 214 5.0 16.0 0.00 0.00 0.00 17 1012.3
20260505031942 58 242 7.0 18.0 0.00 0.00 0.00 15 1012.1
20260505031441 58 188 6.0 18.0 0.00 0.00 0.00 14 1011.9
20260505030940 58 233 5.0 15.0 0.00 0.00 0.00 13 1012.0
20260505030442 58 163 6.0 15.0 0.00 0.00 0.00 14 1011.9
20260505025941 58 165 6.0 14.0 0.00 0.00 0.00 15 1011.9
20260505025435 58 127 5.0 15.0 0.00 0.00 0.00 14 1011.9
20260505024936 58 203 3.0 15.0 0.00 0.00 0.00 14 1011.7
20260505024437 58 161 3.0 10.0 0.00 0.00 0.00 14 1011.8
20260505023437 58 139 4.0 8.0 0.00 0.00 0.00 16 1011.8
20260505022934 59 182 4.0 9.0 0.00 0.00 0.00 16 1011.7
20260505022435 59 193 5.0 14.0 0.00 0.00 0.00 16 1011.7
20260505021940 59 165 5.0 14.0 0.00 0.00 0.00 15 1011.7
20260505021435 59 210 3.0 11.0 0.00 0.00 0.00 16 1011.7
20260505020934 60 250 2.0 10.0 0.00 0.00 0.00 16 1011.6
20260505020429 60 236 2.0 8.0 0.00 0.00 0.00 15 1011.7
20260505015930 60 163 2.0 8.0 0.00 0.00 0.00 15 1011.7
20260505015425 60 152 3.0 9.0 0.00 0.00 0.00 15 1011.7
20260505014918 60 259 3.0 10.0 0.00 0.00 0.00 15 1011.8
20260505014417 60 103 4.0 10.0 0.00 0.00 0.00 14 1011.7
20260505013916 61 165 5.0 11.0 0.00 0.00 0.00 13 1011.7
20260505013416 61 203 5.0 11.0 0.00 0.00 0.00 13 1011.6
20260505012417 61 229 5.0 16.0 0.00 0.00 0.00 11 1011.6
20260505011916 61 136 5.0 16.0 0.00 0.00 0.00 11 1011.6
20260505011415 62 212 6.0 15.0 0.00 0.00 0.00 10 1011.7
20260505010915 62 167 7.0 16.0 0.00 0.00 0.00 9 1011.7
20260505005912 62 162 7.0 17.0 0.00 0.00 0.00 8 1011.6
20260505004411 64 169 3.0 14.0 0.00 0.00 0.00 7 1011.7
20260505003911 64 290 3.0 11.0 0.00 0.00 0.00 9 1011.7
20260505003413 65 252 4.0 12.0 0.00 0.00 0.00 10 1011.8
20260505002913 65 214 5.0 12.0 0.00 0.00 0.00 12 1011.6
20260505002408 65 124 5.0 13.0 0.00 0.00 0.00 7 1011.5
20260505001908 66 219 4.0 13.0 0.00 0.00 0.00 6 1011.7
20260505001410 66 214 3.0 11.0 0.00 0.00 0.00 5 1011.5
20260505000907 66 229 5.0 16.0 0.00 0.00 0.00 6 1011.6
20260505000406 66 156 4.0 16.0 0.00 0.00 0.00 6 1011.6
20260504235401 66 232 5.0 13.0 0.00 0.00 0.00 10 1011.6
20260504234903 66 124 6.0 13.0 0.00 0.00 0.00 12 1011.6
20260504234402 67 259 5.0 13.0 0.00 0.00 0.00 9 1011.6
20260504233901 67 89 4.0 13.0 0.00 0.00 0.00 6 1011.6
20260504233402 68 211 3.0 13.0 0.00 0.00 0.00 7 1011.5
20260504232902 68 267 3.0 10.0 0.00 0.00 0.00 8 1011.6
20260504232404 68 218 4.0 11.0 0.00 0.00 0.00 7 1011.5
20260504231901 67 191 4.0 11.0 0.00 0.00 0.00 7 1011.5
20260504231402 67 201 4.0 14.0 0.00 0.00 0.00 7 1011.5
20260504230901 67 200 6.0 14.0 0.00 0.00 0.00 7 1011.6
20260504225905 67 200 5.0 20.0 0.00 0.00 0.00 7 1011.8
20260504224349 67 249 4.0 12.0 0.00 0.00 0.00 10 1011.8
20260504223841 67 119 3.0 10.0 0.00 0.00 0.00 12 1011.8
20260504223335 67 197 4.0 18.0 0.00 0.00 0.00 15 1011.7
20260504222829 67 311 5.0 18.0 0.00 0.00 0.00 11 1011.8
20260504221818 67 139 4.0 13.0 0.00 0.00 0.00 13 1011.8
20260504221314 66 283 7.0 20.0 0.00 0.00 0.00 13 1011.8
20260504220806 66 158 7.0 20.0 0.00 0.00 0.00 12 1012.1
20260504220259 67 227 6.0 16.0 0.00 0.00 0.00 12 1011.9
20260504215754 67 150 6.0 14.0 0.00 0.00 0.00 12 1011.9
20260504215247 67 190 5.0 14.0 0.00 0.00 0.00 11 1012.1
20260504214744 67 208 6.0 20.0 0.00 0.00 0.00 12 1012.1
20260504214235 66 146 8.0 23.0 0.00 0.00 0.00 13 1012.0
20260504213730 66 106 8.0 23.0 0.00 0.00 0.00 13 1012.1
20260504213223 67 98 7.0 14.0 0.00 0.00 0.00 14 1012.1
20260504212718 66 219 7.0 19.0 0.00 0.00 0.00 15 1012.3
20260504211211 67 197 3.0 10.0 0.00 0.00 0.00 20 1012.5
20260504210711 66 198 5.0 23.0 0.00 0.00 0.00 20 1012.5
20260504210216 65 94 7.0 23.0 0.00 0.00 0.00 21 1012.7
20260504205710 65 208 6.0 19.0 0.00 0.00 0.00 22 1012.7
20260504205207 66 151 6.0 19.0 0.00 0.00 0.00 23 1012.7
20260504204205 66 250 6.0 14.0 0.00 0.00 0.00 25 1012.5
20260504203705 66 173 5.0 14.0 0.00 0.00 0.00 25 1012.5
20260504203208 66 82 5.0 15.0 0.00 0.00 0.00 25 1012.6
20260504202708 65 145 7.0 18.0 0.00 0.00 0.00 26 1012.3
20260504202206 64 196 8.0 25.0 0.00 0.00 0.00 28 1012.6
20260504201706 64 155 6.0 25.0 0.00 0.00 0.00 29 1012.6
20260504201210 64 101 5.0 14.0 0.00 0.00 0.00 29 1012.6
20260504200205 64 82 7.0 18.0 0.00 0.00 0.00 30 1012.7
20260504195707 64 125 7.0 23.0 0.00 0.00 0.00 30 1012.7
20260504195200 64 217 8.0 23.0 0.00 0.00 0.00 31 1012.9
20260504194148 64 233 6.0 17.0 0.00 0.00 0.00 32 1012.8
20260504191127 62 150 9.0 27.0 0.00 0.00 0.00 35 1013.3
20260504190626 62 229 7.0 23.0 0.00 0.00 0.00 35 1013.5
20260504190127 62 183 6.0 22.0 0.00 0.00 0.00 36 1013.6
20260504185127 62 135 6.0 16.0 0.00 0.00 0.00 37 1013.0
20260504184627 62 116 6.0 18.0 0.00 0.00 0.00 36 1013.3
20260504184129 62 278 7.0 21.0 0.00 0.00 0.00 36 1013.4
20260504183130 62 248 5.0 13.0 0.00 0.00 0.00 38 1013.4
20260504182627 62 148 4.0 12.0 0.00 0.00 0.00 37 1013.2
20260504182126 62 293 6.0 22.0 0.00 0.00 0.00 39 1013.4
20260504181628 61 35 9.0 22.0 0.00 0.00 0.00 40 1013.5